Location: Four Corners
(38.2757°N, 122.4608°W)
Time: 02:54:37
(UTC+00:00)

Cosmos 1302 Rocket - Pass Details

Date: 08 December 2019
Orbit: 757 x 776 km, 74.0° (Epoch: 22 January)

Event Time Altitude Azimuth Distance (km) Brightness Sun altitude
Rises 01:40:55 0° 339° (NNW) 3,254 7.3 -10.0°
Reaches altitude 10° 01:43:19 10° 337° (NNW) 2,321 6.5 -10.5°
Maximum altitude 01:48:33 71° 255° (WSW) 814 4.4 -11.4°
Drops below altitude 10° 01:53:44 10° 172° (S) 2,293 6.6 -12.4°
Sets 01:56:06 0° 170° (S) 3,212 7.3 -12.8°
